CW0621 Weather Reports


Display with metric or nautical units.
time (UTC)temp
F
wind
direction
speed
MPH
gust
MPH
rain 1hr
in
rain 24hr
in
rain mn
in
humidity
%
barometer
mb
20260506024513 44 75 0.0 0.0 0.00 0.37 0.13 93 1009.4
20260506023051 43 75 0.0 0.0 0.00 0.37 0.13 93 1009.3
20260506021506 43 75 0.0 0.0 0.00 0.37 0.13 93 1009.1
20260506020105 43 75 0.0 0.0 0.00 0.37 0.13 92 1008.9
20260506014600 43 75 0.0 0.0 0.00 0.37 0.13 92 1008.8
20260506013025 43 75 0.0 0.0 0.00 0.37 0.13 91 1008.6
20260506011558 43 75 0.0 0.0 0.01 0.37 0.13 91 1008.5
20260506010025 43 75 0.0 0.0 0.01 0.37 0.13 90 1008.6
20260506004553 43 75 0.0 0.0 0.02 0.37 0.13 90 1008.5
20260506003020 43 75 0.0 0.0 0.03 0.37 0.13 87 1008.5
20260506001554 43 75 0.0 0.0 0.03 0.36 0.12 85 1008.3
20260506000005 44 75 0.0 0.0 0.03 0.36 0.12 80 1008.5
20260505234534 45 75 0.0 0.0 0.02 0.35 0.11 71 1008.6
20260505233056 47 32 0.0 0.0 0.01 0.34 0.10 62 1008.6
20260505231528 49 55 0.0 0.0 0.00 0.33 0.09 53 1008.5
20260505230051 49 43 0.0 2.0 0.00 0.33 0.09 56 1008.3
20260505224517 49 328 0.0 0.0 0.00 0.33 0.09 55 1008.2
20260505223044 50 51 0.0 0.0 0.00 0.33 0.09 57 1008.2
20260505221509 51 6 0.0 0.0 0.00 0.33 0.09 62 1008.0
20260505220039 51 39 0.0 0.0 0.00 0.33 0.09 64 1007.8
20260505214505 52 12 0.0 0.0 0.00 0.33 0.09 66 1007.9
20260505213036 52 93 0.0 0.0 0.00 0.33 0.09 65 1007.7
20260505211506 52 10 0.0 0.0 0.00 0.33 0.09 66 1007.5
20260505210042 52 56 0.0 0.0 0.00 0.33 0.09 66 1007.4
20260505204502 53 25 0.0 0.0 0.00 0.33 0.09 65 1007.6
20260505203031 54 70 0.0 3.0 0.00 0.33 0.09 66 1007.6
20260505201559 54 68 0.0 1.0 0.00 0.33 0.09 66 1007.8
20260505200023 52 72 0.0 0.0 0.00 0.33 0.09 69 1007.8
20260505194550 52 85 0.0 0.0 0.00 0.33 0.09 70 1008.1
20260505193014 52 222 0.0 0.0 0.00 0.33 0.09 67 1008.2
20260505191544 53 79 0.0 0.0 0.00 0.33 0.09 67 1008.2
20260505190011 53 340 0.0 0.0 0.00 0.33 0.09 72 1008.1
20260505184542 53 332 0.0 1.0 0.00 0.33 0.09 71 1008.1
20260505183100 52 44 0.0 0.0 0.00 0.33 0.09 72 1008.0
20260505181527 51 56 0.0 2.0 0.00 0.33 0.09 73 1008.3
20260505180104 51 91 0.0 0.0 0.00 0.33 0.09 74 1008.2
20260505174532 50 236 0.0 0.0 0.00 0.33 0.09 76 1008.2
20260505173045 49 276 0.0 1.0 0.00 0.33 0.09 76 1008.3
20260505171517 49 117 0.0 0.0 0.00 0.33 0.09 78 1008.2
20260505170041 49 137 0.0 0.0 0.00 0.33 0.09 78 1007.8
20260505164507 49 115 0.0 0.0 0.00 0.33 0.09 80 1007.8
20260505163033 49 131 0.0 0.0 0.00 0.33 0.09 82 1007.7
20260505161603 48 23 0.0 0.0 0.00 0.33 0.09 82 1007.1
20260505153032 49 34 0.0 0.0 0.00 0.33 0.09 75 1007.8
20260505151544 49 75 0.0 0.0 0.00 0.33 0.09 71 1007.8
20260505124507 53 233 0.0 0.0 0.00 0.33 0.09 75 1004.9
20260505123046 52 137 0.0 3.0 0.00 0.33 0.09 72 1004.8
20260505121559 51 224 0.0 2.0 0.00 0.33 0.09 82 1004.9
20260505120025 51 68 0.0 3.0 0.00 0.33 0.09 86 1004.3
20260505114555 52 53 0.0 0.0 0.00 0.33 0.09 92 1004.2
20260505113016 53 136 0.0 0.0 0.00 0.33 0.09 94 1004.4
20260505111544 53 56 0.0 0.0 0.00 0.33 0.09 94 1004.3
20260505101528 53 50 0.0 0.0 0.00 0.33 0.09 94 1002.7
20260505100101 53 106 0.0 0.0 0.00 0.33 0.09 93 1002.8
20260505094531 53 148 0.0 0.0 0.00 0.33 0.09 93 1002.5
20260505093058 53 250 0.0 0.0 0.00 0.33 0.09 93 1002.5
20260505091524 54 250 0.0 0.0 0.00 0.33 0.09 92 1002.3
20260505090058 54 255 0.0 0.0 0.00 0.33 0.09 91 1002.4
20260505084524 54 231 0.0 0.0 0.00 0.33 0.09 92 1002.5
20260505083105 54 117 0.0 0.0 0.00 0.33 0.09 92 1002.4
20260505081522 54 141 0.0 0.0 0.00 0.33 0.09 92 1002.5
20260505080049 54 187 0.0 0.0 0.00 0.33 0.09 92 1002.5
20260505074515 54 262 0.0 0.0 0.00 0.33 0.09 93 1002.0
20260505073050 54 257 0.0 0.0 0.00 0.33 0.09 93 1001.6
20260505071514 54 243 0.0 0.0 0.00 0.33 0.09 93 1001.4
20260505070043 55 129 0.0 0.0 0.00 0.33 0.09 93 1001.4
20260505064511 55 259 0.0 1.0 0.00 0.33 0.09 94 1001.3
20260505063039 54 239 0.0 0.0 0.00 0.33 0.09 94 1000.8
20260505061507 54 219 0.0 0.0 0.00 0.33 0.09 94 1000.6
20260505060033 54 172 0.0 0.0 0.00 0.33 0.09 94 1000.9
20260505054505 54 198 0.0 0.0 0.01 0.33 0.09 94 1001.2
20260505053027 54 265 0.0 0.0 0.03 0.33 0.09 94 1001.1
20260505051553 54 125 0.0 0.0 0.07 0.33 0.09 94 1000.7
20260505041536 55 221 0.0 0.0 0.14 0.25 0.01 93 1002.4
20260505040004 56 147 0.0 0.0 0.17 0.24 0.24 93 1002.4
20260505034541 56 84 0.0 0.0 0.23 0.23 0.23 92 1002.8
20260505033004 56 206 0.0 0.0 0.19 0.19 0.19 91 1002.9
20260505031531 57 108 0.0 0.0 0.11 0.11 0.11 88 1002.0
20260505030127 60 206 0.0 8.0 0.08 0.08 0.07 83 1001.9